"Period start","avg(HW err(1)/warn(2) (#))","avg(Visibility (m))","avg(Weather code (#))","avg(Precip intensity (mm/h))","min(HW err(1)/warn(2) (#))","max(HW err(1)/warn(2) (#))","std(HW err(1)/warn(2) (#))","med(HW err(1)/warn(2) (#))","min(Visibility (m))","max(Visibility (m))","std(Visibility (m))","med(Visibility (m))","min(Weather code (#))","max(Weather code (#))","std(Weather code (#))","med(Weather code (#))","min(Precip intensity (mm/h))","max(Precip intensity (mm/h))","std(Precip intensity (mm/h))","med(Precip intensity (mm/h))"
2016-07-05 00:00:00,2,40905,0,0.00,2,2,0,2,30899,50000,7151,39676,0,0,0,0,0.00,0.00,0.00,0.00
2016-07-05 00:10:00,2,38133,0,0.00,2,2,0,2,23368,50000,8907,40426,0,0,0,0,0.00,0.00,0.00,0.00
2016-07-05 00:20:00,2,41307,0,0.00,2,2,0,2,26328,50000,8255,41448,0,0,0,0,0.00,0.00,0.00,0.00
2016-07-05 00:30:00,2,43881,0,0.00,2,2,0,2,25439,50000,8116,48100,0,0,0,0,0.00,0.00,0.00,0.00
2016-07-05 00:40:00,2,37539,0,0.00,2,2,0,2,19908,50000,11285,38968,0,0,0,0,0.00,0.00,0.00,0.00
2016-07-05 00:50:00,2,45863,0,0.00,2,2,0,2,32067,50000,5639,48646,0,0,0,0,0.00,0.00,0.00,0.00
2016-07-05 01:00:00,2,34773,0,0.00,2,2,0,2,22810,50000,9999,33428,0,0,0,0,0.00,0.00,0.00,0.00
2016-07-05 01:10:00,2,38129,0,0.00,2,2,0,2,30148,44916,4922,38354,0,0,0,0,0.00,0.00,0.00,0.00
2016-07-05 01:20:00,2,37774,0,0.00,2,2,0,2,28295,50000,6751,36404,0,0,0,0,0.00,0.00,0.00,0.00
2016-07-05 01:30:00,2,39669,0,0.00,2,2,0,2,22975,50000,8779,40796,0,0,0,0,0.00,0.00,0.00,0.00
2016-07-05 01:40:00,2,33739,0,0.00,2,2,0,2,10561,50000,12466,34623,0,0,0,0,0.00,0.00,0.00,0.00
2016-07-05 01:50:00,2,35867,0,0.00,2,2,0,2,22557,50000,8715,35516,0,0,0,0,0.00,0.00,0.00,0.00
2016-07-05 02:00:00,2,36837,0,0.00,0,2,1,2,26528,50000,7750,36054,0,0,0,0,0.00,0.00,0.00,0.00
2016-07-05 02:10:00,2,43347,0,0.00,2,2,0,2,33495,50000,3927,43526,0,0,0,0,0.00,0.00,0.00,0.00
2016-07-05 02:20:00,2,38324,0,0.00,2,2,0,2,29030,49705,7669,35686,0,0,0,0,0.00,0.00,0.00,0.00
2016-07-05 02:30:00,2,34034,0,0.00,2,2,0,2,19769,48561,8386,31976,0,0,0,0,0.00,0.00,0.00,0.00
2016-07-05 02:40:00,2,42850,0,0.00,2,2,0,2,37715,50000,4749,41380,0,0,0,0,0.00,0.00,0.00,0.00
2016-07-05 02:50:00,2,46779,0,0.00,2,2,0,2,38217,50000,4553,49530,0,0,0,0,0.00,0.00,0.00,0.00
2016-07-05 03:00:00,0,36829,0,0.00,0,2,1,0,21845,50000,9090,34432,0,0,0,0,0.00,0.00,0.00,0.00
2016-07-05 03:10:00,0,47231,0,0.00,0,0,0,0,38821,50000,3606,48878,0,0,0,0,0.00,0.00,0.00,0.00
2016-07-05 03:20:00,0,42430,0,0.00,0,0,0,0,31453,50000,7025,42996,0,0,0,0,0.00,0.00,0.00,0.00
2016-07-05 03:30:00,0,47083,0,0.00,0,0,0,0,36176,50000,4711,50000,0,0,0,0,0.00,0.00,0.00,0.00
2016-07-05 03:40:00,0,40422,0,0.00,0,0,0,0,25066,50000,7961,42186,0,0,0,0,0.00,0.00,0.00,0.00
2016-07-05 03:50:00,0,45562,0,0.00,0,0,0,0,39549,50000,3890,45402,0,0,0,0,0.00,0.00,0.00,0.00
2016-07-05 04:00:00,0,47762,0,0.00,0,0,0,0,39369,50000,3651,50000,0,0,0,0,0.00,0.00,0.00,0.00
2016-07-05 04:10:00,0,45961,0,0.00,0,0,0,0,41101,50000,2983,46146,0,0,0,0,0.00,0.00,0.00,0.00
2016-07-05 04:20:00,0,35833,0,0.00,0,0,0,0,28407,48471,5385,35396,0,0,0,0,0.00,0.00,0.00,0.00
2016-07-05 04:30:00,0,48145,0,0.00,0,0,0,0,40174,50000,2823,48806,0,0,0,0,0.00,0.00,0.00,0.00
2016-07-05 04:40:00,0,45690,0,0.00,0,0,0,0,40477,50000,3719,45740,0,0,0,0,0.00,0.00,0.00,0.00
2016-07-05 04:50:00,0,48788,0,0.00,0,0,0,0,39063,50000,3261,50000,0,0,0,0,0.00,0.00,0.00,0.00
2016-07-05 05:00:00,0,48987,0,0.00,0,0,0,0,43760,50000,2093,50000,0,0,0,0,0.00,0.00,0.00,0.00
2016-07-05 05:10:00,0,49219,0,0.00,0,0,0,0,44494,50000,1629,50000,0,0,0,0,0.00,0.00,0.00,0.00
2016-07-05 05:20:00,0,48332,0,0.00,0,0,0,0,40708,50000,2844,50000,0,0,0,0,0.00,0.00,0.00,0.00
2016-07-05 05:30:00,0,46733,0,0.00,0,0,0,0,41466,50000,3090,46830,0,0,0,0,0.00,0.00,0.00,0.00
2016-07-05 05:40:00,0,49082,0,0.00,0,0,0,0,43048,50000,2055,50000,0,0,0,0,0.00,0.00,0.00,0.00
2016-07-05 05:50:00,0,49982,0,0.00,0,0,0,0,49822,50000,53,50000,0,0,0,0,0.00,0.00,0.00,0.00
2016-07-05 06:00:00,0,48974,0,0.00,0,0,0,0,46418,50000,1355,49740,0,0,0,0,0.00,0.00,0.00,0.00
2016-07-05 06:10:00,0,49553,0,0.00,0,0,0,0,47594,50000,897,50000,0,0,0,0,0.00,0.00,0.00,0.00
2016-07-05 06:20:00,0,48341,0,0.00,0,0,0,0,43227,50000,2329,49971,0,0,0,0,0.00,0.00,0.00,0.00
2016-07-05 06:30:00,0,49614,0,0.00,0,0,0,0,46241,50000,1125,50000,0,0,0,0,0.00,0.00,0.00,0.00
2016-07-05 06:40:00,0,49677,0,0.00,0,0,0,0,47583,50000,739,50000,0,0,0,0,0.00,0.00,0.00,0.00
2016-07-05 06:50:00,0,46699,0,0.00,0,0,0,0,39062,50000,3700,47720,0,0,0,0,0.00,0.00,0.00,0.00
2016-07-05 07:00:00,0,47669,0,0.00,0,0,0,0,33310,50000,5177,50000,0,0,0,0,0.00,0.00,0.00,0.00
2016-07-05 07:10:00,0,48277,0,0.00,0,0,0,0,42387,50000,2910,50000,0,0,0,0,0.00,0.00,0.00,0.00
2016-07-05 07:20:00,0,47451,0,0.00,0,0,0,0,35029,50000,4502,49974,0,0,0,0,0.00,0.00,0.00,0.00
2016-07-05 07:30:00,0,49355,0,0.00,0,0,0,0,44651,50000,1586,50000,0,0,0,0,0.00,0.00,0.00,0.00
2016-07-05 07:40:00,0,49703,0,0.00,0,0,0,0,47864,50000,662,50000,0,0,0,0,0.00,0.00,0.00,0.00
2016-07-05 07:50:00,0,49638,0,0.00,0,0,0,0,46653,50000,998,50000,0,0,0,0,0.00,0.00,0.00,0.00
2016-07-05 08:00:00,0,45982,0,0.00,0,0,0,0,9816,50000,12055,50000,0,0,0,0,0.00,0.00,0.00,0.00
2016-07-05 08:10:00,0,33901,0,0.00,0,0,0,0,10026,50000,15148,32663,0,0,0,0,0.00,0.00,0.00,0.00
2016-07-05 08:20:00,0,46756,0,0.00,0,0,0,0,31002,50000,5686,49561,0,0,0,0,0.00,0.00,0.00,0.00
2016-07-05 08:30:00,0,49930,0,0.00,0,0,0,0,49373,50000,197,50000,0,0,0,0,0.00,0.00,0.00,0.00
2016-07-05 08:40:00,0,46004,0,0.00,0,0,0,0,35936,50000,5120,48756,0,0,0,0,0.00,0.00,0.00,0.00
2016-07-05 08:50:00,0,48756,0,0.00,0,0,0,0,44872,50000,1852,50000,0,0,0,0,0.00,0.00,0.00,0.00
2016-07-05 09:00:00,0,48210,0,0.00,0,0,0,0,42324,50000,2676,49870,0,0,0,0,0.00,0.00,0.00,0.00
2016-07-05 09:10:00,0,48235,0,0.00,0,0,0,0,43005,50000,2739,50000,0,0,0,0,0.00,0.00,0.00,0.00
2016-07-05 09:20:00,0,46712,0,0.00,0,0,0,0,39250,50000,4194,49090,0,0,0,0,0.00,0.00,0.00,0.00
2016-07-05 09:30:00,0,48191,0,0.00,0,0,0,0,43504,50000,2675,50000,0,0,0,0,0.00,0.00,0.00,0.00
2016-07-05 09:40:00,0,47990,0,0.00,0,0,0,0,42181,50000,2692,49558,0,0,0,0,0.00,0.00,0.00,0.00
2016-07-05 09:50:00,0,50000,0,0.00,0,0,0,0,50000,50000,0,50000,0,0,0,0,0.00,0.00,0.00,0.00
2016-07-05 10:00:00,0,47691,0,0.00,0,0,0,0,39453,50000,3560,50000,0,0,0,0,0.00,0.00,0.00,0.00
2016-07-05 10:10:00,0,45318,0,0.00,0,0,0,0,25569,50000,7574,49264,0,0,0,0,0.00,0.00,0.00,0.00
2016-07-05 10:20:00,0,40961,0,0.00,0,0,0,0,25352,48111,6485,42037,0,0,0,0,0.00,0.00,0.00,0.00
2016-07-05 10:30:00,0,46444,0,0.00,0,0,0,0,33287,50000,5136,49128,0,0,0,0,0.00,0.00,0.00,0.00
2016-07-05 10:40:00,0,49611,0,0.00,0,0,0,0,47520,50000,814,50000,0,0,0,0,0.00,0.00,0.00,0.00
2016-07-05 10:50:00,0,43266,0,0.00,0,0,0,0,35192,50000,5559,43306,0,0,0,0,0.00,0.00,0.00,0.00
2016-07-05 11:00:00,0,49556,0,0.00,0,0,0,0,48224,50000,698,50000,0,0,0,0,0.00,0.00,0.00,0.00
2016-07-05 11:10:00,0,47471,0,0.00,0,0,0,0,41617,50000,2698,48104,0,0,0,0,0.00,0.00,0.00,0.00
2016-07-05 11:20:00,0,44243,0,0.00,0,0,0,0,20849,50000,9684,49495,0,0,0,0,0.00,0.00,0.00,0.00
2016-07-05 11:30:00,0,48489,0,0.00,0,0,0,0,39946,50000,3222,50000,0,0,0,0,0.00,0.00,0.00,0.00
2016-07-05 11:40:00,0,35809,0,0.00,0,0,0,0,12075,50000,12536,40050,0,0,0,0,0.00,0.00,0.00,0.00
2016-07-05 11:50:00,0,43686,0,0.00,0,0,0,0,35615,50000,5502,43224,0,0,0,0,0.00,0.00,0.00,0.00
2016-07-05 12:00:00,0,49846,0,0.00,0,0,0,0,48865,50000,337,50000,0,0,0,0,0.00,0.00,0.00,0.00
2016-07-05 12:10:00,0,47958,0,0.00,0,0,0,0,35280,50000,4421,50000,0,0,0,0,0.00,0.00,0.00,0.00
2016-07-05 12:20:00,0,47436,0,0.00,0,0,0,0,36574,50000,4516,50000,0,0,0,0,0.00,0.00,0.00,0.00
2016-07-05 12:30:00,0,38469,0,0.00,0,0,0,0,13310,50000,14682,49018,0,0,0,0,0.00,0.00,0.00,0.00
2016-07-05 12:40:00,0,46438,0,0.00,0,0,0,0,30199,50000,6672,50000,0,0,0,0,0.00,0.00,0.00,0.00
2016-07-05 12:50:00,0,49267,0,0.00,0,0,0,0,47308,50000,1091,50000,0,0,0,0,0.00,0.00,0.00,0.00
2016-07-05 13:00:00,0,50000,0,0.00,0,0,0,0,50000,50000,0,50000,0,0,0,0,0.00,0.00,0.00,0.00
2016-07-05 13:10:00,0,49954,0,0.00,0,0,0,0,49538,50000,139,50000,0,0,0,0,0.00,0.00,0.00,0.00
2016-07-05 13:20:00,0,49639,0,0.00,0,0,0,0,46393,50000,1082,50000,0,0,0,0,0.00,0.00,0.00,0.00
2016-07-05 13:30:00,0,49988,0,0.00,0,0,0,0,49884,50000,35,50000,0,0,0,0,0.00,0.00,0.00,0.00
2016-07-05 13:40:00,0,50000,0,0.00,0,0,0,0,50000,50000,0,50000,0,0,0,0,0.00,0.00,0.00,0.00
2016-07-05 13:50:00,0,49964,0,0.00,0,0,0,0,49637,50000,109,50000,0,0,0,0,0.00,0.00,0.00,0.00
2016-07-05 14:00:00,0,50000,0,0.00,0,0,0,0,50000,50000,0,50000,0,0,0,0,0.00,0.00,0.00,0.00
2016-07-05 14:10:00,0,50000,0,0.00,0,0,0,0,50000,50000,0,50000,0,0,0,0,0.00,0.00,0.00,0.00
2016-07-05 14:20:00,0,50000,0,0.00,0,0,0,0,50000,50000,0,50000,0,0,0,0,0.00,0.00,0.00,0.00
2016-07-05 14:30:00,0,49950,0,0.00,0,0,0,0,49496,50000,151,50000,0,0,0,0,0.00,0.00,0.00,0.00
2016-07-05 14:40:00,0,50000,0,0.00,0,0,0,0,50000,50000,0,50000,0,0,0,0,0.00,0.00,0.00,0.00
2016-07-05 14:50:00,0,50000,0,0.00,0,0,0,0,50000,50000,0,50000,0,0,0,0,0.00,0.00,0.00,0.00
2016-07-05 15:00:00,0,50000,0,0.00,0,0,0,0,50000,50000,0,50000,0,0,0,0,0.00,0.00,0.00,0.00
2016-07-05 15:10:00,0,50000,0,0.00,0,0,0,0,50000,50000,0,50000,0,0,0,0,0.00,0.00,0.00,0.00
2016-07-05 15:20:00,0,50000,0,0.00,0,0,0,0,50000,50000,0,50000,0,0,0,0,0.00,0.00,0.00,0.00
2016-07-05 15:30:00,0,49885,0,0.00,0,0,0,0,48850,50000,345,50000,0,0,0,0,0.00,0.00,0.00,0.00
2016-07-05 15:40:00,0,50000,0,0.00,0,0,0,0,50000,50000,0,50000,0,0,0,0,0.00,0.00,0.00,0.00
2016-07-05 15:50:00,0,50000,0,0.00,0,0,0,0,50000,50000,0,50000,0,0,0,0,0.00,0.00,0.00,0.00
2016-07-05 16:00:00,0,50000,0,0.00,0,0,0,0,50000,50000,0,50000,0,0,0,0,0.00,0.00,0.00,0.00
2016-07-05 16:10:00,0,50000,0,0.00,0,0,0,0,50000,50000,0,50000,0,0,0,0,0.00,0.00,0.00,0.00
2016-07-05 16:20:00,0,49158,0,0.00,0,0,0,0,45262,50000,1700,50000,0,0,0,0,0.00,0.00,0.00,0.00
2016-07-05 16:30:00,0,50000,0,0.00,0,0,0,0,50000,50000,0,50000,0,0,0,0,0.00,0.00,0.00,0.00
2016-07-05 16:40:00,0,50000,0,0.00,0,0,0,0,50000,50000,0,50000,0,0,0,0,0.00,0.00,0.00,0.00
2016-07-05 16:50:00,0,50000,0,0.00,0,0,0,0,50000,50000,0,50000,0,0,0,0,0.00,0.00,0.00,0.00
2016-07-05 17:00:00,0,50000,0,0.00,0,0,0,0,50000,50000,0,50000,0,0,0,0,0.00,0.00,0.00,0.00
2016-07-05 17:10:00,0,50000,0,0.00,0,0,0,0,50000,50000,0,50000,0,0,0,0,0.00,0.00,0.00,0.00
2016-07-05 17:20:00,0,50000,0,0.00,0,0,0,0,50000,50000,0,50000,0,0,0,0,0.00,0.00,0.00,0.00
2016-07-05 17:30:00,0,50000,0,0.00,0,0,0,0,50000,50000,0,50000,0,0,0,0,0.00,0.00,0.00,0.00
2016-07-05 17:40:00,0,50000,0,0.00,0,0,0,0,50000,50000,0,50000,0,0,0,0,0.00,0.00,0.00,0.00
2016-07-05 17:50:00,0,50000,0,0.00,0,0,0,0,50000,50000,0,50000,0,0,0,0,0.00,0.00,0.00,0.00
2016-07-05 18:00:00,0,50000,0,0.00,0,0,0,0,50000,50000,0,50000,0,0,0,0,0.00,0.00,0.00,0.00
2016-07-05 18:10:00,0,50000,0,0.00,0,0,0,0,50000,50000,0,50000,0,0,0,0,0.00,0.00,0.00,0.00
2016-07-05 18:20:00,0,50000,0,0.00,0,0,0,0,50000,50000,0,50000,0,0,0,0,0.00,0.00,0.00,0.00
2016-07-05 18:30:00,0,49938,0,0.00,0,0,0,0,49379,50000,186,50000,0,0,0,0,0.00,0.00,0.00,0.00
2016-07-05 18:40:00,0,50000,0,0.00,0,0,0,0,50000,50000,0,50000,0,0,0,0,0.00,0.00,0.00,0.00
2016-07-05 18:50:00,0,50000,0,0.00,0,0,0,0,50000,50000,0,50000,0,0,0,0,0.00,0.00,0.00,0.00
2016-07-05 19:00:00,0,45032,6,0.01,0,0,0,0,28905,50000,8263,50000,0,61,18,0,0.00,0.10,0.03,0.00
2016-07-05 19:10:00,0,39283,57,1.64,0,0,0,0,30594,50000,5986,39145,41,61,8,61,0.30,5.90,1.55,1.28
2016-07-05 19:20:00,0,47444,61,1.08,0,0,0,0,30491,50000,5904,50000,61,61,0,61,0.05,2.75,0.85,1.15
2016-07-05 19:30:00,0,46410,55,0.29,0,0,0,0,39593,50000,4004,47794,41,61,8,61,0.05,0.95,0.29,0.17
2016-07-05 19:40:00,0,37549,57,2.38,0,0,0,0,22407,50000,9691,40044,51,61,5,61,0.15,5.80,1.57,2.23
2016-07-05 19:50:00,0,42771,61,2.28,0,0,0,0,28622,50000,7445,44766,61,61,0,61,0.40,5.45,1.30,2.33
2016-07-05 20:00:00,0,47511,61,1.57,0,0,0,0,40686,50000,3154,49437,61,61,0,61,0.30,3.40,0.97,1.48
2016-07-05 20:10:00,0,46983,61,2.68,0,0,0,0,36978,50000,4648,50000,61,61,0,61,0.15,8.90,2.92,1.60
2016-07-05 20:20:00,0,33341,61,5.29,0,0,0,0,11979,50000,12771,34872,61,62,0,61,3.40,11.70,2.36,4.32
2016-07-05 20:30:00,0,37928,61,4.03,0,0,0,0,14777,50000,13212,41828,61,61,0,61,0.00,8.60,2.80,3.87
2016-07-05 20:40:00,0,38643,49,1.81,0,0,0,0,16766,50000,13176,45282,0,61,24,61,0.00,5.70,2.26,0.03
2016-07-05 20:50:00,0,39221,59,3.62,0,0,0,0,20568,50000,10761,41796,51,62,4,61,0.00,16.65,5.99,0.50
2016-07-05 21:00:00,0,40794,61,4.08,0,0,0,0,15730,50000,10078,41706,61,62,0,61,0.45,16.15,4.42,2.45
2016-07-05 21:10:00,0,39510,49,2.33,0,0,0,0,17729,50000,12521,46735,0,61,24,61,0.00,9.80,3.37,0.35
2016-07-05 21:20:00,0,45862,47,0.79,0,0,0,0,28858,50000,6839,49845,0,61,24,61,0.00,2.20,0.71,0.95
2016-07-05 21:30:00,0,43443,61,5.00,0,0,0,0,20952,50000,10516,50000,61,62,0,61,0.00,22.60,7.58,1.50
2016-07-05 21:40:00,0,47026,52,1.89,0,0,0,0,40032,50000,3835,50000,0,61,18,61,0.00,8.60,2.85,0.43
2016-07-05 21:50:00,0,48759,0,0.00,0,0,0,0,43165,50000,2305,50000,0,0,0,0,0.00,0.00,0.00,0.00
2016-07-05 22:00:00,0,50000,0,0.00,0,0,0,0,50000,50000,0,50000,0,0,0,0,0.00,0.00,0.00,0.00
2016-07-05 22:10:00,0,50000,0,0.00,0,0,0,0,50000,50000,0,50000,0,0,0,0,0.00,0.00,0.00,0.00
2016-07-05 22:20:00,0,50000,0,0.00,0,0,0,0,50000,50000,0,50000,0,0,0,0,0.00,0.00,0.00,0.00
2016-07-05 22:30:00,0,50000,0,0.00,0,0,0,0,50000,50000,0,50000,0,0,0,0,0.00,0.00,0.00,0.00
2016-07-05 22:40:00,0,50000,0,0.00,0,0,0,0,50000,50000,0,50000,0,0,0,0,0.00,0.00,0.00,0.00
2016-07-05 22:50:00,0,50000,0,0.00,0,0,0,0,50000,50000,0,50000,0,0,0,0,0.00,0.00,0.00,0.00
2016-07-05 23:00:00,0,47706,0,0.00,0,0,0,0,39002,50000,3761,49624,0,0,0,0,0.00,0.00,0.00,0.00
2016-07-05 23:10:00,0,50000,0,0.00,0,0,0,0,50000,50000,0,50000,0,0,0,0,0.00,0.00,0.00,0.00
2016-07-05 23:20:00,0,46852,0,0.00,0,0,0,0,35558,50000,4916,49644,0,0,0,0,0.00,0.00,0.00,0.00
2016-07-05 23:30:00,0,50000,0,0.00,0,0,0,0,50000,50000,0,50000,0,0,0,0,0.00,0.00,0.00,0.00
2016-07-05 23:40:00,0,49920,0,0.00,0,0,0,0,49195,50000,242,50000,0,0,0,0,0.00,0.00,0.00,0.00
2016-07-05 23:50:00,0,50000,0,0.00,0,0,0,0,50000,50000,0,50000,0,0,0,0,0.00,0.00,0.00,0.00
